Regional Weather Roundup
Issued by NWS

Home | Current Version | Previous Version | Text Only | Print | Product List | Glossary Off
Versions: 1 2 3 4 5 6 7 8 9 10 11 12 13 14 15 16 17 18 19 20 21 22 23 24 25 26 27 28 29 30 31 32 33 34 35 36 37 38 39 40 41 42 43 44 45 46 47 48 49 50

000
ASUS43 KTOP 231808
RWRKS

WEATHER ROUNDUP FOR KANSAS
NATIONAL WEATHER SERVICE GOODLAND KS
100 PM CDT TUE AUG 23 2016

NOTE:  "FAIR" INDICATES FEW OR NO CLOUDS BELOW 12,000 FEET WITH NO
SIGNIFICANT WEATHER AND/OR OBSTRUCTIONS TO VISIBILITY.

KSZ001>006-013>018-027>032-041>047-231900-
NORTHWEST KANSAS

CITY           SKY/WX    TMP DP  RH WIND       PRES   REMARKS
GOODLAND       SUNNY     88  52  29 N13       29.91S
6HR MIN TEMP:  60; 6HR MAX TEMP:  88;

HAYS           SUNNY     91  64  40 SW22G32   29.84S
HILL CITY      SUNNY     88  62  41 S14G23    29.83F
6HR MIN TEMP:  71; 6HR MAX TEMP:  88;

RUSSELL        SUNNY     89  68  49 S28G35    29.84F
6HR MIN TEMP:  71; 6HR MAX TEMP:  89;

$$

KSZ061>065-074>080-084>089-231900-
SOUTHWEST KANSAS

CITY           SKY/WX    TMP DP  RH WIND       PRES   REMARKS
DODGE CITY     SUNNY     91  63  39 S25G32    29.90F
6HR MIN TEMP:  69; 6HR MAX TEMP:  91;

ELKHART          N/A     90  55  30 SW8         N/A
GARDEN CITY    SUNNY     89  55  31 SW17      29.89F
6HR MIN TEMP:  67; 6HR MAX TEMP:  89;

GREAT BEND     MOSUNNY   90  66  45 S26G35    29.87F
LIBERAL        SUNNY     93  57  29 SW23G30   29.94F
PRATT          MOSUNNY   85  67  55 S25G35    29.93F
6HR MIN TEMP:  69; 6HR MAX TEMP:  85;

$$

KSZ066>073-081>083-090>101-231900-
SOUTHEAST KANSAS

CITY           SKY/WX    TMP DP  RH WIND       PRES   REMARKS
CHANUTE        CLOUDY    84  74  71 S15G24    30.02F
6HR MIN TEMP:  73; 6HR MAX TEMP:  84;

COFFEYVILLE    PTSUNNY   83  74  74 S14G23    30.05F
6HR MIN TEMP:  75; 6HR MAX TEMP:  84;

HUTCHINSON     SUNNY     89  71  55 S24G37    29.92F HX  95
6HR MIN TEMP:  74; 6HR MAX TEMP:  89;

MEDICINE LODGE   N/A     86  69  56 S21G30    29.92F
PARSONS        LGT RAIN  82  73  74 S14G22    30.05F
6HR MIN TEMP:  74; 6HR MAX TEMP:  84; 6HR PCP: TRACE;

WICHITA INTL   PTSUNNY   85  72  65 S24G31    29.95F
6HR MIN TEMP:  74; 6HR MAX TEMP:  87;

WICHITA JABRA  PTSUNNY   84  74  71 S25G32    29.96F
6HR MIN TEMP:  74; 6HR MAX TEMP:  84;

WICHITA MCCONL MOSUNNY   85  73  66 SW25      29.96F
WINFIELD       CLOUDY    82  75  79 S16       30.01S
6HR MIN TEMP:  73; 6HR MAX TEMP:  84;

$$

KSZ007>012-019>026-033>040-048>060-102>105-231900-
NORTHEAST KANSAS

CITY           SKY/WX    TMP DP  RH WIND       PRES   REMARKS
CONCORDIA      MOSUNNY   87  70  56 S22G32    29.87F
6HR MIN TEMP:  70; 6HR MAX TEMP:  88;

EMPORIA        PTSUNNY   84  73  69 S24G32    29.97F
6HR MIN TEMP:  70; 6HR MAX TEMP:  84; 6HR PCP: TRACE;

LAWRENCE       CLOUDY    82  73  74 S18       29.98F
6HR MIN TEMP:  69; 6HR MAX TEMP:  83;

MANHATTAN      MOSUNNY   88  73  61 S20G32    29.89F HX  95
6HR MIN TEMP:  73; 6HR MAX TEMP:  88;

MARYSVILLE     PTSUNNY   86  72  62 S17G24    29.89F
OLATHE IND     CLOUDY    81  73  76 S18G25    30.01F
6HR MIN TEMP:  70; 6HR MAX TEMP:  81;

OLATHE EXE     CLOUDY    79  72  79 S18G24    30.02F
6HR MIN TEMP:  65; 6HR MAX TEMP:  79;

SALINA         SUNNY     91  71  51 S29G39    29.87F HX  97
6HR MIN TEMP:  76; 6HR MAX TEMP:  91;

TOPEKA BILLARD CLOUDY    84  73  69 S16       29.95F
6HR MIN TEMP:  71; 6HR MAX TEMP:  85;

TOPEKA FORBES  CLOUDY    85  73  67 S20G30    29.95F
6HR MIN TEMP:  72; 6HR MAX TEMP:  85;

$$




USA.gov is the U.S. government's official web portal to all federal, state and local government web resources and services.